Location: Saint Michaels Cemetery
(37.9420°N, 100.1024°W)
Time: 06:39:29
(UTC+00:00)

Daily predictions for brighter satellites

Satellite Brightness Start Highest point End
(mag) Time Altitude Azimuth Time Altitude Azimuth Time Altitude Azimuth
Cosmos 1802 Rocket 4.2 12:00:30 10° NNW 12:06:26 49° W 12:12:25 10° SSW
USA 281 4.2 12:00:10 10° NNE 12:06:35 54° ESE 12:12:58 10° S
METEOR-M 4.4 12:01:37 10° N 12:06:45 48° WNW 12:11:51 10° SW
